カタログに戻る

SL-14 DEB

運用中PO
NORAD 35524·DEBRIS·🇷🇺 Russia

打ち上げ Aug 18, 1987 から Plesetsk Cosmodrome

Loading…

次のパス (今後24時間)

TLE

最新Source: Space-Track

元期: Sep 11, 2026, 13:38 UTC

1 35524U 87068CT  26254.56867762  .00003019  00000-0  13804-2 0  9995
2 35524  82.5063   1.4489 0026625 332.0728  27.9022 14.21035939192974

AllMySatでSL-14 DEBをリアルタイム追跡

Download on the App Store